Regional Weather Roundup
Issued by NWS Sioux Falls, SD

Home | Current Version | Previous Version | Text Only | Print | Product List | Glossary On
Versions: 1 2 3 4 5 6 7 8 9 10 11 12 13 14 15 16 17 18 19 20 21 22 23 24 25 26 27 28 29 30 31 32 33 34 35 36 37 38 39 40 41 42 43 44 45 46 47 48 49 50
990
ASUS43 KFSD 250810
RWRFSD

WEATHER ROUNDUP FOR SE SOUTH DAKOTA/SW MINNESOTA/NW IOWA
NATIONAL WEATHER SERVICE SIOUX FALLS SD
300 AM CDT THU MAY 25 2017

NOTE: "FAIR" INDICATES FEW OR NO CLOUDS BELOW 12,000 FEET WITH NO
SIGNIFICANT WEATHER AND OR OBSTRUCTIONS TO VISIBILITY.


SDZ038>040-050-052>070-250900-
SOUTHEAST SOUTH DAKOTA

CITY           SKY/WX    TMP DP  RH WIND       PRES   REMARKS
BROOKINGS      CLEAR     48  42  80 SE13      29.62S
CHAMBERLAIN    PTCLDY    54  46  76 SE16      29.45S
HURON          CLEAR     51  45  79 SE17G25   29.50F
MADISON        FAIR      46  46 100 S13       29.62
MITCHELL       CLEAR     51  44  77 SE15      29.54F
SIOUX FALLS    CLEAR     51  45  79 SE13      29.62S
WINNER         FAIR      57  44  62 S20G31    29.38F
YANKTON        PTCLDY    51  43  74 SE9       29.59F
$$

MNZ071-072-080-081-089-090-097-098-250900-
SOUTHWEST MINNESOTA

CITY           SKY/WX    TMP DP  RH WIND       PRES   REMARKS
FAIRMONT       CLEAR     48  46  93 SE3       29.67F
JACKSON        CLEAR     46  45  93 CALM      29.66
LUVERNE        CLEAR     46  43  87 SE8       29.64
MARSHALL       CLEAR     46  44  93 SE8       29.65S
MONTEVIDEO     CLEAR     48  46  93 S8        29.65
PIPESTONE      CLEAR     48  39  71 SE8       29.63
REDWOOD FALLS  CLEAR     49  44  83 SE6       29.66S
TRACY          CLEAR     49  46  89 S8        29.66
WINDOM         CLEAR     48  45  87 SE7       29.66
WORTHINGTON    CLEAR     49  44  83 SE8       29.67S
$$

IAZ001>003-012>014-020>022-031-032-NEZ013-014-SDZ071-250900-
NORTHWEST IOWA

CITY           SKY/WX    TMP DP  RH WIND       PRES   REMARKS
CHEROKEE       CLEAR     47  46  95 CALM      29.66F
DENISON        CLEAR     50  46  87 SE7       29.69R
ESTHERVILLE    CLEAR     44  44 100 SE8       29.65F
LE MARS        CLOUDY    50  45  81 SE10G16   29.65S
ORANGE CITY    CLEAR     48  46  93 SE5       29.64F
SHELDON        CLEAR     48  45  87 SE8       29.64S
SIOUX CITY     PTCLDY    49  46  90 SE8       29.64S
SPENCER        CLEAR     46  44  93 SE7       29.66F
STORM LAKE     CLEAR     48  45  87 SE7       29.67S
$$

ABBREVIATIONS USED IN REMARKS
   TC - TEMPERATURE IN CELSIUS
  WCI - WIND CHILL INDEX
   HX - HEAT INDEX
  VSB - VISIBILITY





USA.gov is the U.S. government's official web portal to all federal, state and local government web resources and services.